Showing default

COSMOS 2090, 20735

Orbit data source: Space-Track

COSMOS 2090, 20735 is a payload satellite owned by UNKS (CIS) in LEO that was launched on Wed, 08 Aug 1990 UTC via a TSIKLON-3 launch vehicle from the Plesetsk Missile And Space Complex (PKMTR). Payload-class satellites include a variety of spacecraft equipped with specific instruments for various scientific and technological missions. These include communications satellites like Starlink; space stations such as the ISS; scientific satellites like the Hubble; Earth observation satellites from companies like Planet Labs, Umbra, and HawkEye 360; GPS; miniature CubeSats for education and research; and military/defense satellites.

Loading next visibility...
Identifier
20735, 1990-070A
Orbit
LEO
Country
Flag of CISCIS
Related business
Manufacturer
NPO PM
Mission
Defense Communications
Bus & Motor
STRELA-3, Unknown motor
Mass
225 kg wet, 225 kg dry
Launch date (UTC)
1990-08-08 (36 years ago)
Launch vehicle
TSIKLON-3
Launch site
Plesetsk Missile And Space Complex (PKMTR)
Object type
Payload
Rocket body
Debris
Shape & HBR
Cyl, 0.8 m
Radar Cross Section
1.257 m², Large (>1 m²)

Expand to show TLE details & history
Last TLE update: 11 hours ago

TLE from 11 hours ago
0 COSMOS 2090
1 20735U 90070A   26063.28578262  .00000039  00000-0  15221-3 0  9996
2 20735  82.5721 339.6264 0013591 306.6748 171.7736 12.65362462642663
Epoch: 2026-03-04T06:51Z
TLE epoch observation values (Epoch: 2026-03-04T06:51:31.618Z)
Latitude
60.74233°
Longitude
-118.69787°
Altitude
1,421.674 km
Speed
7.151 km/s
True Right ascension
09h 44m 56s
True Declination
60° 36' 29"
Sunlit
Object was in daylight at epoch
Visualization orbit readout
Latitude
Unknown
Longitude
Unknown
Altitude
Unknown
Speed
Unknown
Apparent Right ascension
Unknown
Apparent Declination
Unknown
Sunlit
N/A
Visualization observer readout
Local Sidereal Time
21:31:35
Azimuth
Unknown
Elevation
Unknown
Doppler factor
Unknown
Orbital elements
Apogee altitude
1,408.774 km
Perigee altitude
1,387.637 km
Semi-major axis
7,776.342 km
Eccentricity
0.00136
Inclination
82.5721°
RAAN
339.6264°
Arg. of periapsis
306.6748°
True anomaly
171.79585°
Mean anomaly
171.7736°
Eccentric anomaly
171.78473°
Mean motion
3.16505 °/min
Orbital period
113.74 mins
BSTAR
0.00015221
Loading maneuver chart data...
Computing Atmospheric mass density...
Loading historical data...
Loading historical data...
Loading historical data...
Loading historical data...
Loading historical data...
Loading historical data...
Loading historical data...

Documentation

Showing up to 5 results
|